Location: Waco, TX
(31.5480°N, 97.1670°W)
Time: 19:05:08
(UTC-06:00)

ISS - Pass Details

Date: 13 November 2017
Orbit: 402 x 407 km, 51.6° (Epoch: 21 November)

Event Time Altitude Azimuth Distance (km) Brightness Sun altitude
Rises 00:49:02 0° 256° (WSW) 2,309 - -74.2°
Reaches altitude 10° 00:51:30 10° 274° (W) 1,451 - -73.9°
Maximum altitude 00:53:57 20° 323° (NW) 1,010 - -73.6°
Drops below altitude 10° 00:56:25 10° 13° (NNE) 1,454 - -73.3°
Sets 00:58:53 0° 31° (NNE) 2,314 - -73.0°
